User: anonymous   Login
Location: Unspecified
(0.0000°N, 0.0000°E)
Time: 00:24:29
(UTC+00:00)
Language:

SES 14 - Orbit

View from above orbital plane
View from above orbital plane
View from above satellite
View from above satellite

Ground track
Ground track

The orbit data is extracted from the following two-line orbital elements,

1 43175U 18012B   19192.79166667 -.00000309  00000-0  00000+0 0  9994
2 43175   0.3728 217.0441 0175947 244.6123  75.1723  1.00432368  5687
Epoch (UTC): 11 July 2019 19:00:00
Eccentricity: 0.0175947
inclination: 0.3728°
perigee height: 35000 km
apogee height: 36482 km
right ascension of ascending node: 217.0441°
argument of perigee: 244.6123°
revolutions per day: 1.00432368
mean anomaly at epoch: 75.1723°
orbit number at epoch: 568

The dashed part of the orbit path shows where the satellite is in the earth's shadow,  

DLR